Weather History for Penn Yan, NY

Change the Weather History Date:

Wednesday, January 8, 2014

  Actual Average (KITH) Record (KITH)
Temperature  
Mean Temperature 11 °F -  
Max Temperature 19 °F 30 °F 64 °F (2008)
Min Temperature 3 °F 14 °F -10 °F (1973)
Degree Days  
Heating Degree Days 54    
Moisture  
Dew Point 0 °F    
Average Humidity 59    
Maximum Humidity 67    
Minimum Humidity 46    
Precipitation  
Precipitation 0.00 in - - ()
Sea Level Pressure  
Sea Level Pressure 30.41 in    
Wind  
Wind Speed 11 mph (SW)    
Max Wind Speed 15 mph    
Max Gust Speed -    
Visibility 10 miles    
Events      
Averages and records for this station are not official NWS values.
T = Trace of Precipitation, MM = Missing Value Source: NWS Daily Summary

Daily Weather History Graph

Daily Weather History Graph

Search for Another Location

Airport:

Trip Planner

Search our weather history database for the weather conditions in past years. The results will help you decide how hot, cold, wet, or windy it might be!

Date:

Astronomy

Jan. 08, 2014 Rise Set
Actual Time 7:37 AM EST 4:52 PM EST
Civil Twilight 7:06 AM EST 5:23 PM EST
Nautical Twilight 6:31 AM EST 5:59 PM EST
Astronomical Twilight 5:57 AM EST 6:33 PM EST
Moon 11:47 AM EST (1/8) 12:36 AM EST (1/8)
Length of Visible Light 10h 17m
Length of Day
9h 14m
First Quarter, 56% of the Moon is Illuminated
Jan 8
First Quarter
Jan 15
Full
Jan 24
Last Quarter
Jan 30
New
Feb 6
First Quarter

Hourly Weather History & Observations

Time (EST) Temp. Windchill Dew Point Humidity Pressure Visibility Wind Dir Wind Speed Gust Speed Precip Events Conditions
12:53 AM 3.9 °F -13.0 °F -7.1 °F 60% 30.31 in 10.0 mi SW 12.7 mph - N/A   Clear
1:53 AM 5.0 °F -11.6 °F -5.1 °F 63% 30.34 in 10.0 mi SW 12.7 mph - N/A   Clear
2:53 AM 5.0 °F -10.0 °F -5.1 °F 63% 30.36 in 10.0 mi SSW 10.4 mph - N/A   Clear
3:53 AM 5.0 °F -9.1 °F -5.1 °F 63% 30.37 in 10.0 mi SSW 9.2 mph - N/A   Overcast
4:46 AM 5.0 °F -9.1 °F -5.1 °F 63% 30.30 in 10.0 mi SSW 9.2 mph - N/A   Overcast
4:53 AM 5.0 °F -9.1 °F -5.1 °F 63% 30.38 in 10.0 mi SSW 9.2 mph - N/A   Overcast
5:26 AM 6.1 °F -5.6 °F -4.0 °F 63% 30.30 in 10.0 mi SSW 6.9 mph - N/A   Overcast
5:53 AM 6.1 °F -7.8 °F -4.0 °F 63% 30.38 in 10.0 mi SSW 9.2 mph - N/A   Overcast
6:53 AM 7.0 °F -7.5 °F -2.0 °F 67% 30.41 in 10.0 mi SSW 10.4 mph - N/A   Overcast
7:53 AM 8.1 °F -5.3 °F -0.9 °F 67% 30.42 in 10.0 mi SSW 9.2 mph - N/A   Overcast
8:53 AM 8.1 °F -7.7 °F -0.9 °F 67% 30.45 in 10.0 mi SSW 12.7 mph - N/A   Overcast
9:53 AM 9.0 °F -5.9 °F -0.0 °F 67% 30.46 in 10.0 mi SSW 11.5 mph - N/A   Overcast
10:02 AM 9.0 °F -6.6 °F -0.9 °F 64% 30.39 in 10.0 mi SSW 12.7 mph - N/A   Overcast
10:28 AM 10.0 °F -4.5 °F -0.0 °F 64% 30.39 in 10.0 mi SW 11.5 mph - N/A   Scattered Clouds
10:53 AM 12.0 °F -4.0 °F -0.0 °F 59% 30.47 in 10.0 mi SSW 15.0 mph - N/A   Clear
11:53 AM 15.1 °F 1.1 °F 1.0 °F 54% 30.44 in 10.0 mi SW 12.7 mph - N/A   Clear
12:53 PM 17.1 °F 3.6 °F 1.9 °F 52% 30.42 in 10.0 mi West 12.7 mph - N/A   Partly Cloudy
1:53 PM 18.0 °F 6.9 °F 1.9 °F 50% 30.40 in 10.0 mi SW 9.2 mph - N/A   Clear
2:53 PM 19.0 °F 9.0 °F 1.9 °F 47% 30.41 in 10.0 mi SSW 8.1 mph - N/A   Clear
3:53 PM 19.0 °F 10.0 °F 1.0 °F 46% 30.41 in 10.0 mi West 6.9 mph - N/A   Partly Cloudy
4:53 PM 19.0 °F 9.0 °F 1.9 °F 47% 30.42 in 10.0 mi SW 8.1 mph - N/A   Clear
5:53 PM 18.0 °F 5.4 °F 1.9 °F 50% 30.43 in 10.0 mi SW 11.5 mph - N/A   Mostly Cloudy
6:53 PM 18.0 °F 7.7 °F 3.0 °F 52% 30.43 in 10.0 mi SW 8.1 mph - N/A   Overcast
7:53 PM 18.0 °F 9.8 °F 3.9 °F 54% 30.44 in 10.0 mi SW 5.8 mph - N/A   Overcast
8:53 PM 19.0 °F 8.2 °F 3.9 °F 52% 30.45 in 10.0 mi SSW 9.2 mph - N/A   Overcast
9:53 PM 19.0 °F 10.0 °F 6.1 °F 57% 30.45 in 10.0 mi SW 6.9 mph - N/A   Overcast
10:53 PM 19.0 °F 7.5 °F 7.0 °F 59% 30.46 in 10.0 mi SW 10.4 mph - N/A   Overcast
11:53 PM 19.0 °F 8.2 °F 8.1 °F 62% 30.46 in 10.0 mi WSW 9.2 mph - N/A   Overcast